TimePST,TemperatureF,Dew PointF,Humidity,Sea Level PressureIn,VisibilityMPH,Wind Direction,Wind SpeedMPH,Gust SpeedMPH,PrecipitationIn,Events,Conditions,WindDirDegrees,DateUTC
12:53 AM,48.9,21.0,33,30.06,10.0,NW,13.8,26.5,N/A,,Clear,320,2012-12-19 08:53:00
1:53 AM,48.9,21.0,33,30.08,10.0,WNW,9.2,23.0,N/A,,Clear,300,2012-12-19 09:53:00
2:53 AM,48.9,21.9,35,30.10,10.0,NW,9.2,17.3,N/A,,Clear,310,2012-12-19 10:53:00
3:53 AM,48.0,23.0,37,30.11,10.0,NW,8.1,16.1,N/A,,Clear,310,2012-12-19 11:53:00
4:53 AM,48.0,23.0,37,30.10,10.0,NW,12.7,23.0,N/A,,Clear,320,2012-12-19 12:53:00
5:53 AM,48.0,21.9,36,30.13,10.0,NW,10.4,18.4,N/A,,Clear,320,2012-12-19 13:53:00
6:53 AM,48.0,21.0,34,30.14,10.0,NW,4.6,-,N/A,,Clear,320,2012-12-19 14:53:00
7:53 AM,48.0,21.0,34,30.18,10.0,Calm,Calm,-,N/A,,Clear,0,2012-12-19 15:53:00
8:53 AM,50.0,23.0,35,30.21,10.0,Variable,3.5,-,N/A,,Clear,0,2012-12-19 16:53:00
9:53 AM,53.1,17.1,24,30.23,10.0,Calm,Calm,-,N/A,,Clear,0,2012-12-19 17:53:00
10:53 AM,55.0,16.0,22,30.22,10.0,Calm,Calm,-,N/A,,Clear,0,2012-12-19 18:53:00
11:53 AM,57.0,14.0,18,30.21,10.0,West,4.6,-,N/A,,Clear,260,2012-12-19 19:53:00
12:06 PM,57.2,15.8,20,30.21,2.5,West,4.6,-,N/A,,Haze,260,2012-12-19 20:06:00
12:14 PM,57.2,15.8,20,30.21,10.0,SSW,3.5,-,N/A,,Clear,210,2012-12-19 20:14:00
12:53 PM,59.0,12.0,16,30.20,10.0,Calm,Calm,-,N/A,,Clear,0,2012-12-19 20:53:00
1:53 PM,60.1,17.1,19,30.19,10.0,Variable,4.6,-,N/A,,Clear,0,2012-12-19 21:53:00
2:53 PM,61.0,10.0,13,30.19,10.0,Calm,Calm,-,N/A,,Clear,0,2012-12-19 22:53:00
3:53 PM,62.1,10.9,13,30.20,10.0,Calm,Calm,-,N/A,,Clear,0,2012-12-19 23:53:00
4:53 PM,59.0,16.0,19,30.20,10.0,Calm,Calm,-,N/A,,Clear,0,2012-12-20 00:53:00
5:53 PM,55.9,25.0,30,30.22,10.0,Calm,Calm,-,N/A,,Clear,0,2012-12-20 01:53:00
6:53 PM,54.0,27.0,35,30.23,10.0,Calm,Calm,-,N/A,,Clear,0,2012-12-20 02:53:00
7:53 PM,52.0,27.0,38,30.24,10.0,Calm,Calm,-,N/A,,Clear,0,2012-12-20 03:53:00
8:53 PM,51.1,25.0,36,30.26,10.0,Calm,Calm,-,N/A,,Clear,0,2012-12-20 04:53:00
9:53 PM,48.9,27.0,43,30.28,10.0,Calm,Calm,-,N/A,,Clear,0,2012-12-20 05:53:00
10:53 PM,50.0,24.1,36,30.27,10.0,Variable,3.5,-,N/A,,Clear,0,2012-12-20 06:53:00
11:53 PM,48.0,21.0,34,30.26,10.0,Calm,Calm,-,N/A,,Clear,0,2012-12-20 07:53:00